Simultaneous Nadir Overpasses (SNOs) Predictions

Prediction of SNOs between LANDSAT-8 and METOP-A Satellite Orbit:

Table of predicted SNOs for the next 14.0 days since TLE Epoch: 4/5/2015
Index Date (LANDSAT-8) Time (LANDSAT-8) Lat,Lon (LANDSAT-8) SZA (LANDSAT-8 ) Date (METOP-A) Time (METOP-A) Lat,Lon (METOP-A) SZA (METOP-A ) Distance(km) Time Diff (sec)
1 04/05/2015 12:52:12 81.11, 26.03 76.96 04/05/2015 12:51:38 81.11, 25.91 76.94 1.98 34
2 04/05/2015 13:41:37 -81.16,-165.63 102.95 04/05/2015 13:42:16 -81.15,-165.55 102.93 1.38 39
3 04/08/2015 08:26:30 81.13, 92.70 75.96 04/08/2015 08:25:57 81.12, 92.52 75.93 3.23 33
4 04/08/2015 09:15:56 -81.15, -99.28 104.00 04/08/2015 09:16:36 -81.15, -99.29 103.98 0.43 40
5 04/11/2015 04:00:54 81.13, 159.11 74.94 04/11/2015 04:00:17 81.12, 159.06 74.92 0.98 37
6
